Location: Fluertsh�userhof
(48.7537°N, 10.3850°E)
Time: 05:56:57
(UTC+00:00)

Cosmos 2227 Rocket - Pass Details

Date: 18 September 2020
Orbit: 840 x 844 km, 71.0° (Epoch: 22 October)

Event Time Altitude Azimuth Distance (km) Brightness Sun altitude
Rises 23:35:08 0° 336° (NNW) 3,406 6.0 -39.6°
Reaches altitude 10° 23:38:20 10° 354° (N) 2,468 5.3 -39.5°
Maximum altitude 23:42:19 19° 39° (NE) 1,899 4.5 -39.4°
Enters shadow 23:43:08 19° 50° (NE) 1,926 4.4 -39.4°
